,,Stat6,,Stat2,,Stat8,,Stat9,,Stat10,,Wind1,,Wind1,
time,status,PA1M_AVG,status,PR1M_SUM,status,RH1M_AVG,status,SR1M_AVG,status,TA1M_AVG,status,W1dAve1m,status,W1sAve1m,
2004-01-26, 00:00:00,VALID,917.465,VALID,0,VALID,95.3029,VALID,0,VALID,19.6061,VALID,341,VALID,0.585366,
2004-01-26, 00:01:00,VALID,917.432,VALID,0,VALID,95.5318,VALID,-0.0339617,VALID,19.5904,VALID,337,VALID,0.198437,
2004-01-26, 00:02:00,VALID,917.416,VALID,0,VALID,95.7493,VALID,-0.0169808,VALID,19.5544,VALID,337,VALID,0.0820313,
2004-01-26, 00:03:00,VALID,917.428,VALID,0,VALID,95.9095,VALID,-0.0169808,VALID,19.5455,VALID,11,VALID,0.387277,
2004-01-26, 00:04:00,VALID,917.387,VALID,0,VALID,96.1791,VALID,-0.0169808,VALID,19.5288,VALID,95,VALID,0.283203,
2004-01-26, 00:05:00,VALID,917.39,VALID,0,VALID,95.2317,VALID,-0.0169808,VALID,19.5003,VALID,93,VALID,0.568598,
2004-01-26, 00:06:00,VALID,917.411,VALID,0,VALID,95.3093,VALID,-0.0509425,VALID,19.5385,VALID,55,VALID,1.22842,
2004-01-26, 00:07:00,VALID,917.435,VALID,0,VALID,94.8909,VALID,-0.0509425,VALID,19.5778,VALID,74,VALID,1.54989,
2004-01-26, 00:08:00,VALID,917.416,VALID,0,VALID,94.5209,VALID,-0.0169808,VALID,19.6098,VALID,99,VALID,1.01358,
2004-01-26, 00:09:00,VALID,917.425,VALID,0,VALID,94.1521,VALID,-0.0339617,VALID,19.6324,VALID,75,VALID,1.25469,
2004-01-26, 00:10:00,VALID,917.421,VALID,0,VALID,94.2246,VALID,0,VALID,19.6714,VALID,48,VALID,1.29554,
2004-01-26, 00:11:00,VALID,917.416,VALID,0,VALID,94.0886,VALID,-0.0339617,VALID,19.6707,VALID,78,VALID,1.25176,
2004-01-26, 00:12:00,VALID,917.386,VALID,0,VALID,93.3663,VALID,-0.0509425,VALID,19.6672,VALID,101,VALID,1.4708,
2004-01-26, 00:13:00,VALID,917.368,VALID,0,VALID,93.1527,VALID,0,VALID,19.7231,VALID,92,VALID,1.02858,
2004-01-26, 00:14:00,VALID,917.377,VALID,0,VALID,93.2328,VALID,-0.0169808,VALID,19.7546,VALID,115,VALID,0.960352,
2004-01-26, 00:15:00,VALID,917.371,VALID,0,VALID,92.9835,VALID,0,VALID,19.7584,VALID,95,VALID,0.657422,
2004-01-26, 00:16:00,VALID,917.362,VALID,0,VALID,93.2391,VALID,0,VALID,19.771,VALID,41,VALID,0.973828,
2004-01-26, 00:17:00,VALID,917.357,VALID,0,VALID,93.5202,VALID,0,VALID,19.7777,VALID,53,VALID,1.41425,
2004-01-26, 00:18:00,VALID,917.316,VALID,0,VALID,93.3421,VALID,0,VALID,19.7487,VALID,69,VALID,1.17525,
2004-01-26, 00:19:00,VALID,917.286,VALID,0,VALID,93.2251,VALID,0,VALID,19.7449,VALID,60,VALID,0.832589,
2004-01-26, 00:20:00,VALID,917.262,VALID,0,VALID,93.4172,VALID,0,VALID,19.7586,VALID,66,VALID,1.14807,
2004-01-26, 00:21:00,VALID,917.255,VALID,0,VALID,93.6321,VALID,-0.0339617,VALID,19.7425,VALID,68,VALID,1.0484,
2004-01-26, 00:22:00,VALID,917.246,VALID,0,VALID,93.435,VALID,-0.0169808,VALID,19.7328,VALID,77,VALID,1.41927,
2004-01-26, 00:23:00,VALID,917.208,VALID,0,VALID,93.5278,VALID,-0.0339617,VALID,19.7161,VALID,116,VALID,1.00018,
2004-01-26, 00:24:00,VALID,917.198,VALID,0,VALID,93.3994,VALID,0,VALID,19.7129,VALID,80,VALID,0.718555,
2004-01-26, 00:25:00,VALID,917.198,VALID,0,VALID,93.2518,VALID,0,VALID,19.7159,VALID,78,VALID,0.973899,
2004-01-26, 00:26:00,VALID,917.203,VALID,0,VALID,93.0522,VALID,0,VALID,19.7253,VALID,46,VALID,1.31286,
2004-01-26, 00:27:00,VALID,917.193,VALID,0,VALID,92.9645,VALID,-0.0679233,VALID,19.7487,VALID,111,VALID,1.45052,
2004-01-26, 00:28:00,VALID,917.207,VALID,0,VALID,92.6809,VALID,-0.0169808,VALID,19.7487,VALID,96,VALID,0.675071,
2004-01-26, 00:29:00,VALID,917.204,VALID,0,VALID,91.9993,VALID,0,VALID,19.7748,VALID,37,VALID,2.32363,
2004-01-26, 00:30:00,VALID,917.214,VALID,0,VALID,90.1491,VALID,-0.0339617,VALID,19.9392,VALID,41,VALID,2.05705,
2004-01-26, 00:31:00,VALID,917.202,VALID,0,VALID,89.9291,VALID,-0.0849042,VALID,20.0851,VALID,74,VALID,1.83836,
2004-01-26, 00:32:00,VALID,917.188,VALID,0,VALID,90.2636,VALID,-0.0679233,VALID,20.1004,VALID,39,VALID,1.0277,
2004-01-26, 00:33:00,VALID,917.208,VALID,0,VALID,90.6489,VALID,-0.0169808,VALID,20.0711,VALID,31,VALID,1.69798,
2004-01-26, 00:34:00,VALID,917.193,VALID,0,VALID,90.5573,VALID,-0.0169808,VALID,20.0356,VALID,53,VALID,1.9495,
2004-01-26, 00:35:00,VALID,917.168,VALID,0,VALID,90.6425,VALID,-0.0169808,VALID,20.0267,VALID,63,VALID,1.37381,
2004-01-26, 00:36:00,VALID,917.164,VALID,0,VALID,90.86,VALID,0,VALID,19.9909,VALID,54,VALID,1.60429,
2004-01-26, 00:37:00,VALID,917.155,VALID,0,VALID,90.9324,VALID,-0.0169808,VALID,19.9713,VALID,88,VALID,1.39386,
2004-01-26, 00:38:00,VALID,917.135,VALID,0,VALID,90.8739,VALID,-0.0339617,VALID,19.9419,VALID,83,VALID,1.5629,
2004-01-26, 00:39:00,VALID,917.122,VALID,0,VALID,91.1384,VALID,-0.0339617,VALID,19.939,VALID,84,VALID,1.24691,
2004-01-26, 00:40:00,VALID,917.104,VALID,0,VALID,91.3801,VALID,0,VALID,19.9096,VALID,83,VALID,0.982376,
2004-01-26, 00:41:00,VALID,917.088,VALID,0,VALID,91.6929,VALID,0,VALID,19.894,VALID,94,VALID,1.01381,
2004-01-26, 00:42:00,VALID,917.058,VALID,0,VALID,91.3775,VALID,0,VALID,19.848,VALID,86,VALID,1.32475,
2004-01-26, 00:43:00,VALID,917.062,VALID,0,VALID,91.4665,VALID,0.0169808,VALID,19.8451,VALID,64,VALID,1.38941,
2004-01-26, 00:44:00,VALID,917.039,VALID,0,VALID,91.6077,VALID,0.0509425,VALID,19.8508,VALID,55,VALID,1.81021,
2004-01-26, 00:45:00,VALID,917.018,VALID,0,VALID,91.6039,VALID,0,VALID,19.8386,VALID,85,VALID,1.94354,
2004-01-26, 00:46:00,VALID,917.002,VALID,0,VALID,91.1868,VALID,0.0339617,VALID,19.8451,VALID,114,VALID,1.97965,
2004-01-26, 00:47:00,VALID,917.003,VALID,0,VALID,91.5555,VALID,0.0339617,VALID,19.861,VALID,94,VALID,0.814276,
2004-01-26, 00:48:00,VALID,917.009,VALID,0,VALID,91.2847,VALID,0.0509425,VALID,19.8547,VALID,63,VALID,1.71964,
2004-01-26, 00:49:00,VALID,917.025,VALID,0,VALID,91.3457,VALID,0.0679233,VALID,19.8575,VALID,49,VALID,1.25332,
2004-01-26, 00:50:00,VALID,917.006,VALID,0,VALID,91.4805,VALID,0.0339617,VALID,19.8443,VALID,48,VALID,1.16007,
2004-01-26, 00:51:00,VALID,916.991,VALID,0,VALID,91.5466,VALID,0.0339617,VALID,19.8316,VALID,61,VALID,1.14117,
2004-01-26, 00:52:00,VALID,916.994,VALID,0,VALID,90.9197,VALID,0.0509425,VALID,19.8187,VALID,71,VALID,1.43114,
2004-01-26, 00:53:00,VALID,916.976,VALID,0,VALID,90.6692,VALID,0.0509425,VALID,19.8284,VALID,46,VALID,0.873285,
2004-01-26, 00:54:00,VALID,916.953,VALID,0,VALID,90.8333,VALID,0.0679233,VALID,19.857,VALID,77,VALID,0.864644,
2004-01-26, 00:55:00,VALID,916.91,VALID,0,VALID,90.86,VALID,0.0339617,VALID,19.8535,VALID,47,VALID,0.987805,
2004-01-26, 00:56:00,VALID,916.905,VALID,0,VALID,91.2211,VALID,0.0509425,VALID,19.8572,VALID,46,VALID,0.697856,
2004-01-26, 00:57:00,VALID,916.882,VALID,0,VALID,91.5212,VALID,0.0169808,VALID,19.8577,VALID,25,VALID,0.596912,
2004-01-26, 00:58:00,VALID,916.86,VALID,0,VALID,91.2961,VALID,0.0509425,VALID,19.8187,VALID,4,VALID,0.601563,
2004-01-26, 00:59:00,VALID,916.873,VALID,0,VALID,91.5148,VALID,0.0339617,VALID,19.8217,VALID,351,VALID,0.524858,
2004-01-26, 01:00:00,VALID,916.873,VALID,0,VALID,91.5759,VALID,0.0339617,VALID,19.8023,VALID,342,VALID,0.715661,
2004-01-26, 01:01:00,VALID,916.877,VALID,0,VALID,92.0108,VALID,0.0509425,VALID,19.7671,VALID,9,VALID,0.925595,
2004-01-26, 01:02:00,VALID,916.866,VALID,0,VALID,92.3948,VALID,0.0509425,VALID,19.7348,VALID,10,VALID,0.513579,
2004-01-26, 01:03:00,VALID,916.849,VALID,0,VALID,92.7521,VALID,0.0339617,VALID,19.7057,VALID,10,VALID,0.134629,
2004-01-26, 01:04:00,VALID,916.826,VALID,0,VALID,93.0687,VALID,0,VALID,19.6933,VALID,10,VALID,0.0531994,
2004-01-26, 01:05:00,VALID,916.826,VALID,0,VALID,93.2239,VALID,0.0169808,VALID,19.6605,VALID,17,VALID,0.357812,
2004-01-26, 01:06:00,VALID,916.828,VALID,0,VALID,93.0052,VALID,0.0679233,VALID,19.6379,VALID,77,VALID,0.824886,
2004-01-26, 01:07:00,VALID,916.793,VALID,0,VALID,92.6389,VALID,0.0169808,VALID,19.6086,VALID,100,VALID,0.868963,
2004-01-26, 01:08:00,VALID,916.753,VALID,0,VALID,92.728,VALID,0,VALID,19.6319,VALID,123,VALID,1.00533,
2004-01-26, 01:09:00,VALID,916.733,VALID,0,VALID,92.8487,VALID,0.0509425,VALID,19.6314,VALID,125,VALID,1.18351,
2004-01-26, 01:10:00,VALID,916.734,VALID,0,VALID,92.9276,VALID,0,VALID,19.615,VALID,124,VALID,1.15643,
2004-01-26, 01:11:00,VALID,916.73,VALID,0,VALID,93.3765,VALID,0.0169808,VALID,19.6123,VALID,91,VALID,1,
2004-01-26, 01:12:00,VALID,916.716,VALID,0,VALID,93.0064,VALID,0,VALID,19.5867,VALID,85,VALID,1.01429,
2004-01-26, 01:13:00,VALID,916.668,VALID,0,VALID,92.5359,VALID,-0.0339617,VALID,19.5584,VALID,95,VALID,0.875174,
2004-01-26, 01:14:00,VALID,916.639,VALID,0,VALID,92.3503,VALID,-0.0849042,VALID,19.5748,VALID,109,VALID,0.501598,
2004-01-26, 01:15:00,VALID,916.635,VALID,0,VALID,92.0451,VALID,-0.0509425,VALID,19.5971,VALID,107,VALID,0.576308,
2004-01-26, 01:16:00,VALID,916.635,VALID,0,VALID,92.4151,VALID,-0.0849042,VALID,19.6265,VALID,108,VALID,0.769985,
2004-01-26, 01:17:00,VALID,916.63,VALID,0,VALID,92.8805,VALID,-0.0679233,VALID,19.6364,VALID,112,VALID,1.12012,
2004-01-26, 01:18:00,VALID,916.621,VALID,0,VALID,91.9713,VALID,-0.0849042,VALID,19.6106,VALID,102,VALID,1.2418,
2004-01-26, 01:19:00,VALID,916.603,VALID,0,VALID,91.614,VALID,-0.0849042,VALID,19.6329,VALID,93,VALID,1.41369,
2004-01-26, 01:20:00,VALID,916.568,VALID,0,VALID,91.848,VALID,-0.118866,VALID,19.6592,VALID,67,VALID,0.678013,
2004-01-26, 01:21:00,VALID,916.565,VALID,0,VALID,91.998,VALID,-0.0849042,VALID,19.6684,VALID,77,VALID,0.815104,
2004-01-26, 01:22:00,VALID,916.555,VALID,0,VALID,91.7056,VALID,-0.0849042,VALID,19.6463,VALID,99,VALID,1.28281,
2004-01-26, 01:23:00,VALID,916.546,VALID,0,VALID,91.333,VALID,-0.0509425,VALID,19.6329,VALID,118,VALID,1.43824,
2004-01-26, 01:24:00,VALID,916.504,VALID,0,VALID,91.2109,VALID,-0.0679233,VALID,19.6458,VALID,105,VALID,0.759487,
2004-01-26, 01:25:00,VALID,916.472,VALID,0,VALID,91.2008,VALID,-0.0339617,VALID,19.6682,VALID,136,VALID,0.720796,
2004-01-26, 01:26:00,VALID,916.451,VALID,0,VALID,91.2173,VALID,-0.0509425,VALID,19.6746,VALID,137,VALID,0.524465,
2004-01-26, 01:27:00,VALID,916.455,VALID,0,VALID,90.9935,VALID,-0.0169808,VALID,19.691,VALID,122,VALID,0.929324,
2004-01-26, 01:28:00,VALID,916.454,VALID,0,VALID,90.757,VALID,-0.0339617,VALID,19.6973,VALID,119,VALID,0.867543,
2004-01-26, 01:29:00,VALID,916.466,VALID,0,VALID,91.1194,VALID,-0.0509425,VALID,19.7233,VALID,57,VALID,1.40365,
2004-01-26, 01:30:00,VALID,916.429,VALID,0,VALID,91.6077,VALID,-0.0339617,VALID,19.7037,VALID,24,VALID,1.1123,
2004-01-26, 01:31:00,VALID,916.413,VALID,0,VALID,91.6903,VALID,-0.0509425,VALID,19.6689,VALID,42,VALID,0.996761,
2004-01-26, 01:32:00,VALID,916.39,VALID,0,VALID,91.5008,VALID,-0.0849042,VALID,19.6428,VALID,83,VALID,1.22693,
2004-01-26, 01:33:00,VALID,916.351,VALID,0,VALID,91.3915,VALID,-0.0679233,VALID,19.6299,VALID,143,VALID,1.18192,
2004-01-26, 01:34:00,VALID,916.333,VALID,0,VALID,91.3966,VALID,-0.0849042,VALID,19.6202,VALID,138,VALID,1.42721,
2004-01-26, 01:35:00,VALID,916.324,VALID,0,VALID,91.7908,VALID,-0.0679233,VALID,19.6294,VALID,76,VALID,1.85938,
2004-01-26, 01:36:00,VALID,916.289,VALID,0,VALID,91.3152,VALID,-0.0339617,VALID,19.617,VALID,132,VALID,1.97496,
2004-01-26, 01:37:00,VALID,916.274,VALID,0,VALID,90.5446,VALID,-0.0849042,VALID,19.6453,VALID,117,VALID,1.81105,
2004-01-26, 01:38:00,VALID,916.283,VALID,0,VALID,89.4536,VALID,-0.0509425,VALID,19.7815,VALID,117,VALID,2.65816,
2004-01-26, 01:39:00,VALID,916.27,VALID,0,VALID,88.2951,VALID,-0.0509425,VALID,19.9101,VALID,109,VALID,1.38821,
2004-01-26, 01:40:00,VALID,916.274,VALID,0,VALID,88.566,VALID,-0.0509425,VALID,20.0272,VALID,88,VALID,0.801669,
2004-01-26, 01:41:00,VALID,916.265,VALID,0,VALID,88.7618,VALID,-0.0339617,VALID,20.0393,VALID,117,VALID,1.24829,
2004-01-26, 01:42:00,VALID,916.261,VALID,0,VALID,89.2488,VALID,-0.0679233,VALID,20.0334,VALID,126,VALID,1.51172,
2004-01-26, 01:43:00,VALID,916.267,VALID,0,VALID,89.6875,VALID,-0.0339617,VALID,19.9772,VALID,101,VALID,1.17318,
2004-01-26, 01:44:00,VALID,916.268,VALID,0,VALID,89.9749,VALID,0.0169808,VALID,19.9221,VALID,81,VALID,1.3212,
2004-01-26, 01:45:00,VALID,916.255,VALID,0,VALID,90.2458,VALID,0,VALID,19.8736,VALID,84,VALID,1.33303,
2004-01-26, 01:46:00,VALID,916.233,VALID,0,VALID,90.1682,VALID,0,VALID,19.8354,VALID,126,VALID,1.14805,
2004-01-26, 01:47:00,VALID,916.205,VALID,0,VALID,89.8134,VALID,0.0169808,VALID,19.8155,VALID,142,VALID,0.880632,
2004-01-26, 01:48:00,VALID,916.189,VALID,0,VALID,90.2331,VALID,0,VALID,19.8351,VALID,119,VALID,1.55378,
2004-01-26, 01:49:00,VALID,916.171,VALID,0,VALID,89.9889,VALID,0.0339617,VALID,19.809,VALID,112,VALID,1.48363,
2004-01-26, 01:50:00,VALID,916.142,VALID,0,VALID,90.214,VALID,0,VALID,19.819,VALID,54,VALID,1.05804,
2004-01-26, 01:51:00,VALID,916.112,VALID,0,VALID,90.2089,VALID,0,VALID,19.8123,VALID,38,VALID,1.94568,
2004-01-26, 01:52:00,VALID,916.11,VALID,0,VALID,90.5789,VALID,0.0169808,VALID,19.8222,VALID,40,VALID,1.39174,
2004-01-26, 01:53:00,VALID,916.088,VALID,0,VALID,90.6819,VALID,0.0169808,VALID,19.7961,VALID,66,VALID,1.99473,
2004-01-26, 01:54:00,VALID,916.081,VALID,0,VALID,90.6679,VALID,0.0169808,VALID,19.7603,VALID,97,VALID,1.87064,
2004-01-26, 01:55:00,VALID,916.047,VALID,0,VALID,90.3742,VALID,0,VALID,19.7606,VALID,86,VALID,1.85789,
2004-01-26, 01:56:00,VALID,916.038,VALID,0,VALID,89.245,VALID,0.0339617,VALID,19.8155,VALID,99,VALID,1.98717,
2004-01-26, 01:57:00,VALID,916.014,VALID,0,VALID,89.1051,VALID,0.0339617,VALID,19.9121,VALID,85,VALID,2.11291,
2004-01-26, 01:58:00,VALID,916.003,VALID,0,VALID,89.0912,VALID,0,VALID,19.9603,VALID,98,VALID,1.45739,
2004-01-26, 01:59:00,VALID,915.98,VALID,0,VALID,88.786,VALID,0.0169808,VALID,19.9869,VALID,115,VALID,1.51456,
2004-01-26, 02:00:00,VALID,915.961,VALID,0,VALID,88.9284,VALID,0.0169808,VALID,19.9963,VALID,113,VALID,0.952398,
2004-01-26, 02:01:00,VALID,915.931,VALID,0,VALID,89.2514,VALID,0.0169808,VALID,19.9961,VALID,118,VALID,1.24293,
2004-01-26, 02:02:00,VALID,915.906,VALID,0,VALID,89.3353,VALID,0.0169808,VALID,19.9802,VALID,105,VALID,1.48065,
2004-01-26, 02:03:00,VALID,915.889,VALID,0,VALID,88.7822,VALID,0.0169808,VALID,19.9832,VALID,95,VALID,2.11806,
2004-01-26, 02:04:00,VALID,915.882,VALID,0,VALID,88.7733,VALID,0.0169808,VALID,20.0343,VALID,86,VALID,1.24911,
2004-01-26, 02:05:00,VALID,915.884,VALID,0,VALID,89.1802,VALID,0.0169808,VALID,20.0545,VALID,87,VALID,1.37926,
2004-01-26, 02:06:00,VALID,915.857,VALID,0,VALID,89.1903,VALID,0,VALID,20.0388,VALID,107,VALID,1.47329,
2004-01-26, 02:07:00,VALID,915.855,VALID,0,VALID,89.4358,VALID,0,VALID,20.0157,VALID,130,VALID,1.21348,
2004-01-26, 02:08:00,VALID,915.837,VALID,0,VALID,89.6672,VALID,0.0169808,VALID,19.9998,VALID,110,VALID,1.77326,
2004-01-26, 02:09:00,VALID,915.826,VALID,0,VALID,89.348,VALID,0,VALID,19.9834,VALID,84,VALID,1.5904,
2004-01-26, 02:10:00,VALID,915.801,VALID,0,VALID,89.1128,VALID,0,VALID,20.0065,VALID,117,VALID,2.04324,
2004-01-26, 02:11:00,VALID,915.789,VALID,0,VALID,89.2438,VALID,-0.0169808,VALID,20.0222,VALID,107,VALID,1.83557,
2004-01-26, 02:12:00,VALID,915.791,VALID,0,VALID,89.1458,VALID,0,VALID,20.0319,VALID,116,VALID,1.56585,
2004-01-26, 02:13:00,VALID,915.78,VALID,0,VALID,88.9208,VALID,-0.0679233,VALID,20.0396,VALID,106,VALID,1.78016,
2004-01-26, 02:14:00,VALID,915.778,VALID,0,VALID,88.7555,VALID,-0.118866,VALID,20.059,VALID,82,VALID,1.87155,
2004-01-26, 02:15:00,VALID,915.765,VALID,0,VALID,87.9976,VALID,-0.101885,VALID,20.0915,VALID,79,VALID,2.87729,
2004-01-26, 02:16:00,VALID,915.746,VALID,0,VALID,87.9772,VALID,-0.0849042,VALID,20.165,VALID,86,VALID,1.85399,
2004-01-26, 02:17:00,VALID,915.738,VALID,0,VALID,88.0828,VALID,-0.0679233,VALID,20.1914,VALID,113,VALID,1.38722,
2004-01-26, 02:18:00,VALID,915.731,VALID,0,VALID,88.6766,VALID,-0.0679233,VALID,20.1787,VALID,91,VALID,1.14063,
2004-01-26, 02:19:00,VALID,915.734,VALID,0,VALID,89.0021,VALID,-0.0849042,VALID,20.13,VALID,82,VALID,1.41515,
2004-01-26, 02:20:00,VALID,915.732,VALID,0,VALID,89.0072,VALID,-0.101885,VALID,20.0848,VALID,73,VALID,1.42355,
2004-01-26, 02:21:00,VALID,915.71,VALID,0,VALID,89.1102,VALID,-0.0339617,VALID,20.0592,VALID,90,VALID,1.56745,
2004-01-26, 02:22:00,VALID,915.678,VALID,0,VALID,88.4223,VALID,-0.0849042,VALID,20.0595,VALID,129,VALID,2.28311,
2004-01-26, 02:23:00,VALID,915.672,VALID,0,VALID,88.3244,VALID,-0.101885,VALID,20.1173,VALID,112,VALID,1.25127,
2004-01-26, 02:24:00,VALID,915.67,VALID,0,VALID,88.7872,VALID,-0.101885,VALID,20.1464,VALID,109,VALID,1.3641,
2004-01-26, 02:25:00,VALID,915.659,VALID,0,VALID,89.0072,VALID,-0.101885,VALID,20.1012,VALID,115,VALID,1.56212,
2004-01-26, 02:26:00,VALID,915.63,VALID,0,VALID,89.0988,VALID,-0.0679233,VALID,20.059,VALID,113,VALID,1.55299,
2004-01-26, 02:27:00,VALID,915.624,VALID,0,VALID,88.8915,VALID,-0.101885,VALID,20.0299,VALID,111,VALID,1.71782,
2004-01-26, 02:28:00,VALID,915.598,VALID,0,VALID,88.7923,VALID,-0.101885,VALID,20.0232,VALID,118,VALID,1.73576,
2004-01-26, 02:29:00,VALID,915.564,VALID,0,VALID,88.8419,VALID,-0.0849042,VALID,20.0463,VALID,137,VALID,1.64553,
2004-01-26, 02:30:00,VALID,915.541,VALID,0,VALID,88.9742,VALID,-0.101885,VALID,20.0557,VALID,100,VALID,1.41673,
2004-01-26, 02:31:00,VALID,915.526,VALID,0,VALID,88.9195,VALID,-0.0849042,VALID,20.056,VALID,129,VALID,2.19633,
2004-01-26, 02:32:00,VALID,915.511,VALID,0,VALID,88.8585,VALID,-0.0849042,VALID,20.056,VALID,99,VALID,1.58841,
2004-01-26, 02:33:00,VALID,915.534,VALID,0,VALID,89.0848,VALID,-0.101885,VALID,20.0687,VALID,103,VALID,1.42496,
2004-01-26, 02:34:00,VALID,915.504,VALID,0,VALID,89.2476,VALID,-0.101885,VALID,20.0624,VALID,126,VALID,1.67797,
2004-01-26, 02:35:00,VALID,915.48,VALID,0,VALID,89.0543,VALID,-0.0849042,VALID,20.0528,VALID,128,VALID,1.21018,
2004-01-26, 02:36:00,VALID,915.484,VALID,0,VALID,89.1217,VALID,-0.0849042,VALID,20.0391,VALID,104,VALID,1.11047,
2004-01-26, 02:37:00,VALID,915.504,VALID,0,VALID,89.6151,VALID,-0.101885,VALID,20.0428,VALID,50,VALID,1.39825,
2004-01-26, 02:38:00,VALID,915.48,VALID,0,VALID,89.4599,VALID,-0.0679233,VALID,20.0046,VALID,83,VALID,1.40346,
2004-01-26, 02:39:00,VALID,915.472,VALID,0,VALID,89.4396,VALID,-0.118866,VALID,19.9877,VALID,80,VALID,1.52567,
2004-01-26, 02:40:00,VALID,915.445,VALID,0,VALID,88.8623,VALID,-0.101885,VALID,20.0108,VALID,107,VALID,2.14336,
2004-01-26, 02:41:00,VALID,915.446,VALID,0,VALID,89.0314,VALID,-0.101885,VALID,20.0426,VALID,132,VALID,1.59096,
2004-01-26, 02:42:00,VALID,915.442,VALID,0,VALID,89.0759,VALID,-0.101885,VALID,20.0493,VALID,108,VALID,1.234,
2004-01-26, 02:43:00,VALID,915.433,VALID,0,VALID,89.1458,VALID,-0.0339617,VALID,20.045,VALID,122,VALID,1.226,
2004-01-26, 02:44:00,VALID,915.42,VALID,0,VALID,88.8699,VALID,-0.0509425,VALID,20.0348,VALID,124,VALID,2.35472,
2004-01-26, 02:45:00,VALID,915.409,VALID,0,VALID,89.0619,VALID,0,VALID,20.0569,VALID,99,VALID,1.1916,
2004-01-26, 02:46:00,VALID,915.419,VALID,0,VALID,88.6792,VALID,0,VALID,20.0674,VALID,129,VALID,1.6121,
2004-01-26, 02:47:00,VALID,915.434,VALID,0,VALID,88.5533,VALID,0.0169808,VALID,20.0905,VALID,115,VALID,1.76693,
2004-01-26, 02:48:00,VALID,915.453,VALID,0,VALID,88.6194,VALID,0,VALID,20.1196,VALID,125,VALID,1.70821,
2004-01-26, 02:49:00,VALID,915.472,VALID,0,VALID,88.299,VALID,0,VALID,20.1253,VALID,124,VALID,1.02689,
2004-01-26, 02:50:00,VALID,915.472,VALID,0,VALID,88.2824,VALID,0,VALID,20.1514,VALID,95,VALID,0.835938,
2004-01-26, 02:51:00,VALID,915.473,VALID,0,VALID,88.6372,VALID,0,VALID,20.16,VALID,65,VALID,0.432927,
2004-01-26, 02:52:00,VALID,915.479,VALID,0,VALID,88.8114,VALID,0.0169808,VALID,20.1543,VALID,43,VALID,0.864183,
2004-01-26, 02:53:00,VALID,915.489,VALID,0,VALID,88.4401,VALID,0,VALID,20.1514,VALID,114,VALID,1.5439,
2004-01-26, 02:54:00,VALID,915.49,VALID,0,VALID,88.5317,VALID,0,VALID,20.1576,VALID,85,VALID,1.61421,
2004-01-26, 02:55:00,VALID,915.483,VALID,0,VALID,88.8686,VALID,-0.0339617,VALID,20.1511,VALID,56,VALID,1.51349,
2004-01-26, 02:56:00,VALID,915.483,VALID,0,VALID,89.1624,VALID,0,VALID,20.1118,VALID,57,VALID,0.603993,
2004-01-26, 02:57:00,VALID,915.463,VALID,0,VALID,89.315,VALID,-0.0169808,VALID,20.0833,VALID,54,VALID,1.23686,
2004-01-26, 02:58:00,VALID,915.474,VALID,0,VALID,89.8757,VALID,0.0169808,VALID,20.0542,VALID,98,VALID,1.07122,
2004-01-26, 02:59:00,VALID,915.491,VALID,0,VALID,89.9469,VALID,0,VALID,20.009,VALID,97,VALID,0.914621,
2004-01-26, 03:00:00,VALID,915.465,VALID,0,VALID,89.7562,VALID,0,VALID,19.9765,VALID,121,VALID,1.00335,
2004-01-26, 03:01:00,VALID,915.448,VALID,0,VALID,89.9024,VALID,0,VALID,19.9872,VALID,129,VALID,1.2302,
2004-01-26, 03:02:00,VALID,915.467,VALID,0,VALID,90.0957,VALID,0,VALID,19.9802,VALID,126,VALID,0.963415,
2004-01-26, 03:03:00,VALID,915.453,VALID,0,VALID,90.4581,VALID,0,VALID,19.9668,VALID,129,VALID,1.09022,
2004-01-26, 03:04:00,VALID,915.449,VALID,0,VALID,90.8625,VALID,0,VALID,19.9417,VALID,135,VALID,0.880814,
2004-01-26, 03:05:00,VALID,915.451,VALID,0,VALID,91.1423,VALID,0,VALID,19.9027,VALID,117,VALID,0.510861,
2004-01-26, 03:06:00,VALID,915.444,VALID,0,VALID,91.4284,VALID,0,VALID,19.8704,VALID,28,VALID,0.801417,
2004-01-26, 03:07:00,VALID,915.426,VALID,0,VALID,91.5962,VALID,-0.0169808,VALID,19.8249,VALID,80,VALID,0.612805,
2004-01-26, 03:08:00,VALID,915.417,VALID,0,VALID,91.703,VALID,0,VALID,19.7892,VALID,104,VALID,0.894701,
2004-01-26, 03:09:00,VALID,915.383,VALID,0,VALID,91.6738,VALID,0,VALID,19.7859,VALID,129,VALID,1.03543,
2004-01-26, 03:10:00,VALID,915.365,VALID,0,VALID,91.6827,VALID,0,VALID,19.7996,VALID,127,VALID,0.981399,
2004-01-26, 03:11:00,VALID,915.353,VALID,0,VALID,91.7577,VALID,-0.0339617,VALID,19.809,VALID,112,VALID,0.94184,
2004-01-26, 03:12:00,VALID,915.334,VALID,0,VALID,91.4271,VALID,0,VALID,19.8093,VALID,109,VALID,1.35547,
2004-01-26, 03:13:00,VALID,915.324,VALID,0,VALID,91.4411,VALID,0,VALID,19.8319,VALID,110,VALID,1.07868,
2004-01-26, 03:14:00,VALID,915.323,VALID,0,VALID,91.3165,VALID,-0.0169808,VALID,19.8446,VALID,108,VALID,1.11991,
2004-01-26, 03:15:00,VALID,915.313,VALID,0,VALID,91.1028,VALID,-0.0339617,VALID,19.8607,VALID,108,VALID,1.00934,
2004-01-26, 03:16:00,VALID,915.321,VALID,0,VALID,91.2338,VALID,0,VALID,19.89,VALID,83,VALID,0.92569,
2004-01-26, 03:17:00,VALID,915.311,VALID,0,VALID,91.0316,VALID,0,VALID,19.893,VALID,104,VALID,0.830357,
2004-01-26, 03:18:00,VALID,915.318,VALID,0,VALID,91.1677,VALID,-0.0169808,VALID,19.9064,VALID,79,VALID,1.04306,
2004-01-26, 03:19:00,VALID,915.307,VALID,0,VALID,91.2669,VALID,0,VALID,19.896,VALID,92,VALID,0.901811,
2004-01-26, 03:20:00,VALID,915.292,VALID,0,VALID,91.202,VALID,-0.0169808,VALID,19.89,VALID,114,VALID,0.689174,
2004-01-26, 03:21:00,VALID,915.279,VALID,0,VALID,91.2186,VALID,0,VALID,19.8865,VALID,112,VALID,0.545945,
2004-01-26, 03:22:00,VALID,915.27,VALID,0,VALID,91.2618,VALID,0,VALID,19.8831,VALID,110,VALID,0.647104,
2004-01-26, 03:23:00,VALID,915.272,VALID,0,VALID,91.319,VALID,0,VALID,19.8962,VALID,117,VALID,0.960211,
2004-01-26, 03:24:00,VALID,915.257,VALID,0,VALID,91.6039,VALID,-0.0509425,VALID,19.8932,VALID,139,VALID,0.888393,
2004-01-26, 03:25:00,VALID,915.246,VALID,0,VALID,91.492,VALID,0,VALID,19.89,VALID,132,VALID,1.07527,
2004-01-26, 03:26:00,VALID,915.252,VALID,0,VALID,91.3737,VALID,0,VALID,19.8903,VALID,134,VALID,1.14028,
2004-01-26, 03:27:00,VALID,915.243,VALID,0,VALID,91.7259,VALID,0,VALID,19.8833,VALID,115,VALID,0.599609,
2004-01-26, 03:28:00,VALID,915.23,VALID,0,VALID,91.8976,VALID,-0.0339617,VALID,19.8672,VALID,103,VALID,0.43821,
2004-01-26, 03:29:00,VALID,915.201,VALID,0,VALID,92.0743,VALID,-0.0339617,VALID,19.8615,VALID,48,VALID,0.242188,
2004-01-26, 03:30:00,VALID,915.193,VALID,0,VALID,92.0731,VALID,-0.0169808,VALID,19.8282,VALID,69,VALID,0.632212,
2004-01-26, 03:31:00,VALID,915.187,VALID,0,VALID,91.4195,VALID,0,VALID,19.8287,VALID,122,VALID,1.4029,
2004-01-26, 03:32:00,VALID,915.191,VALID,0,VALID,91.2008,VALID,-0.0169808,VALID,19.851,VALID,126,VALID,1.31938,
2004-01-26, 03:33:00,VALID,915.173,VALID,0,VALID,91.1982,VALID,-0.0169808,VALID,19.9029,VALID,125,VALID,1.274,
2004-01-26, 03:34:00,VALID,915.174,VALID,0,VALID,91.1168,VALID,0.0169808,VALID,19.9091,VALID,136,VALID,1.41387,
2004-01-26, 03:35:00,VALID,915.202,VALID,0,VALID,91.3152,VALID,0,VALID,19.8957,VALID,149,VALID,1.08457,
2004-01-26, 03:36:00,VALID,915.2,VALID,0,VALID,91.5504,VALID,0,VALID,19.8898,VALID,126,VALID,0.925495,
2004-01-26, 03:37:01,VALID,915.217,VALID,0,VALID,92.0247,VALID,-0.0169808,VALID,19.8801,VALID,116,VALID,0.733467,